Location: Clarks Summit,Pa.
(41.5000°N, 75.6000°W)
Time: 01:08:44
(UTC-05:00)

Envisat - Visible Passes

Search period start: 30 November 2021 00:00
Search period end: 10 December 2021 00:00
Orbit: 764 x 766 km, 98.2° (Epoch: 29 November)

Date Brightness Start Highest point End Pass type
(mag) Time Alt. Az. Time Alt. Az. Time Alt. Az.
30 Nov 3.7 04:44:36 10° NNE 04:49:35 53° E 04:54:32 10° S visible
30 Nov 4.2 06:24:38 10° NNW 06:28:11 19° WNW 06:31:43 10° WSW visible
30 Nov 6.1 17:41:11 10° WSW 17:43:36 13° W 17:46:02 10° WNW visible
01 Dec 5.2 04:08:26 10° NE 04:12:32 24° E 04:16:35 10° SSE visible
01 Dec 3.4 05:46:55 10° N 05:51:39 40° WNW 05:56:21 10° SW visible
01 Dec 5.2 17:01:58 10° SSW 17:06:23 30° W 17:10:50 10° NW visible
02 Dec 6.1 03:34:36 10° E 03:35:15 10° E 03:35:54 10° E visible
02 Dec 2.9 05:09:48 10° NNE 05:14:55 88° WNW 05:20:00 10° SSW visible
03 Dec 4.2 04:33:10 10° NNE 04:38:00 41° E 04:42:47 10° SSE visible
03 Dec 4.0 06:12:44 10° NNW 06:16:44 24° WNW 06:20:45 10° WSW visible
03 Dec 5.9 17:28:37 10° SW 17:31:55 17° W 17:35:14 10° NW visible
04 Dec 5.5 03:57:19 10° NE 04:00:52 19° E 04:04:24 10° SE visible
04 Dec 3.1 05:35:14 10° N 05:40:09 51° WNW 05:45:03 10° SW visible
05 Dec 3.1 04:58:15 10° NNE 05:03:22 74° ESE 05:08:26 10° S visible
05 Dec 4.5 06:39:03 10° NNW 06:41:45 15° WNW 06:44:27 10° W visible
06 Dec 4.6 04:21:49 10° NNE 04:26:22 33° E 04:30:54 10° SSE visible
06 Dec 3.7 06:00:55 10° N 06:05:17 30° WNW 06:09:39 10° SW visible
06 Dec 5.7 17:16:22 10° SW 17:20:15 22° W 17:24:09 10° NW visible
07 Dec 5.8 03:46:23 10° NE 03:49:11 15° E 03:51:59 10° SE visible
07 Dec 2.9 05:23:36 10° N 05:28:38 65° WNW 05:33:39 10° SSW visible
08 Dec 3.5 04:46:46 10° NNE 04:51:48 57° E 04:56:46 10° S visible
08 Dec 4.3 06:26:57 10° NNW 06:30:20 18° WNW 06:33:42 10° WSW visible
08 Dec 6.2 17:43:47 10° WSW 17:45:50 12° W 17:47:53 10° WNW visible
09 Dec 5.0 04:10:31 10° NE 04:14:44 26° E 04:18:56 10° SSE visible
09 Dec 3.4 05:49:10 10° N 05:53:49 37° WNW 05:58:27 10° SW visible
09 Dec 5.3 17:04:17 10° SSW 17:08:36 28° W 17:12:57 10° NW visible
